Find Starlink 34764

NORAD ID: 65098 Int'l Des: 2025-167 Owner: SPXS Country: US Constellation: starlink operational
LEOCIRCULAR

实时位置

正在加载3D地球...

关于 Starlink 34764

正在加载描述...

即将过境

Passes for default location (London). Set your location on the main map for personalized predictions.

高度历史

Loading altitude history...

两行轨道根数

1 65098U 25167W 26107.24792814 .00013311 00000-0 46067-3 0 9997
2 65098 53.1592 207.5295 0001383 89.6048 270.5112 15.30205161 39380
Epoch: Apr 17, 2026 • Age: 7 hours

当前状态

高度 492.9 km
速度 7.62 km/s
星下点 -48.85°S, 39.3°E
发射日期 Aug 4, 2025
运行时间 0.7 years
类型 internet

技术详情

分类 Payload
质量 575.00 kg
干质量 530.00 kg
总质量 575.00 kg
长度 0.30 m
直径 4.10 m
跨度 29.00 m
形状 Box + pan
制造商 SPXS
平台类型 Starlink V2MO
阶段状态 In Orbit
所有者/国家 SPXS/US

Most Searched